GFSFLT1_700_rhum_210.txt.gz
RH
32 33 32 29 28 26 26 29 28 32 40 43 48 47 42 39 37 40 38 52 72 79 65 37 30 29 23 21 21 21 20 20
34 36 36 36 36 36 33 31 30 31 34 38 42 44 49 51 47 44 46 42 53 84 91 60 41 40 35 23 20 22 21 20
35 33 38 39 38 38 37 39 36 33 33 35 39 48 53 61 59 55 56 48 41 61 90 93 82 57 63 39 20 21 21 21
24 31 38 38 35 31 34 38 42 44 42 38 52 47 48 52 54 56 51 54 55 52 76 94 90 72 63 42 37 21 20 21
45 42 29 24 22 21 26 34 40 44 45 42 41 61 55 49 50 61 72 65 69 70 60 94 81 68 73 58 54 65 20 19
43 34 33 40 41 42 48 48 48 51 52 56 88 98 90 93 60 60 65 74 76 75 77 75 100 97 100 86 74 57 28 21
48 51 58 63 62 60 62 63 59 55 55 57 80 94 99 92 97 80 71 78 89 84 87 77 99 100 98 97 89 80 73 38
68 70 70 70 65 65 63 59 52 56 58 54 58 61 98 98 99 99 98 85 93 92 100 92 99 97 100 100 98 95 94 47
64 64 64 62 64 59 61 57 54 46 44 51 71 69 82 92 100 100 97 100 97 97 87 97 100 100 100 100 100 100 82 97
66 71 64 58 55 53 50 41 41 43 42 31 28 39 52 68 73 84 97 100 97 100 99 98 92 100 100 100 100 99 99 99
60 59 61 53 44 40 37 32 26 23 20 16 14 14 16 26 39 83 84 89 97 99 99 92 93 99 99 99 99 100 99 99
68 68 64 45 31 29 31 29 27 26 20 19 16 18 37 53 68 97 96 88 92 99 92 100 100 99 100 98 99 99 99 100
42 45 44 32 29 32 32 32 32 29 20 21 30 35 50 68 83 89 99 100 99 88 97 99 97 97 98 98 99 98 99 99
38 42 42 40 39 32 32 34 35 34 29 22 34 56 58 61 74 89 100 89 95 98 100 98 99 93 96 98 97 98 98 98
55 50 46 46 40 37 35 43 44 42 47 42 27 35 35 50 78 91 96 94 96 92 99 98 99 97 97 96 95 95 97 98
56 51 49 50 43 52 66 67 55 42 35 33 31 24 24 30 31 30 77 88 90 97 88 92 98 99 98 96 96 97 95 96
47 52 56 48 44 40 37 37 36 42 45 41 37 24 24 17 26 27 65 86 79 90 97 84 95 97 97 97 96 94 96 96
58 71 69 67 70 71 70 66 56 48 44 45 54 46 36 33 34 46 98 100 84 81 90 96 94 99 98 94 96 98 98 95
72 72 70 65 56 51 47 49 50 51 48 44 43 41 34 29 28 46 66 68 66 60 77 85 98 99 98 100 99 100 100 99

GFSFLT1_700_rhum_216.txt.gz
RH
35 34 34 32 31 30 34 37 39 39 39 39 37 38 44 44 44 46 46 45 49 56 61 68 84 89 86 77 68 68 70 38
35 37 35 32 30 30 31 38 40 37 36 36 39 41 46 44 46 48 50 51 55 54 60 63 63 86 93 88 81 81 82 72
37 32 34 41 42 42 43 39 33 29 25 25 26 26 25 31 47 47 50 52 56 66 64 67 70 76 81 92 93 90 84 86
28 36 41 35 26 23 21 20 19 24 35 41 36 31 30 30 30 32 42 56 57 58 59 69 78 70 69 80 95 94 93 89
39 37 24 20 20 25 29 33 35 38 37 36 33 31 27 23 22 21 20 22 42 59 73 87 79 83 88 80 82 93 98 88
40 28 26 27 35 34 40 40 35 31 27 25 24 22 22 20 18 23 28 29 31 35 44 84 84 97 82 93 94 99 95 99
33 37 37 35 37 42 38 37 34 29 32 33 24 27 28 29 34 34 31 36 41 61 72 75 98 93 94 90 93 98 94 99
38 37 40 40 38 40 42 37 34 35 42 42 33 29 33 32 30 32 36 31 29 34 35 40 65 89 88 95 91 83 89 100
49 46 43 46 47 45 40 38 39 39 39 42 45 40 35 33 30 25 26 26 27 28 27 27 31 53 76 99 94 100 96 95
52 49 47 48 50 47 45 44 42 41 40 39 38 31 26 22 19 20 20 15 15 19 22 30 42 45 70 100 100 100 100 99
59 61 58 56 53 50 50 47 40 35 33 34 39 32 32 28 24 23 20 18 25 41 49 56 65 74 92 96 98 99 100 100
57 53 50 42 32 29 30 31 28 34 34 30 36 33 33 26 24 25 22 20 32 60 76 80 88 85 92 98 99 99 99 100
50 36 26 36 34 47 57 52 51 49 40 38 36 37 42 47 39 29 22 19 20 32 31 55 70 86 95 93 93 97 100 100
46 36 38 40 49 55 63 58 51 52 56 65 61 61 58 50 45 43 35 29 24 16 30 34 54 65 86 96 90 97 100 100
44 54 60 66 72 61 55 53 64 64 66 72 75 70 65 57 46 46 44 34 23 28 30 33 72 57 75 94 97 99 97 97
56 60 61 64 69 58 64 69 56 69 71 74 83 77 68 64 54 45 39 32 27 30 36 40 92 79 77 78 94 98 98 95
56 55 56 58 65 68 68 62 64 66 63 53 57 71 74 58 50 46 42 33 35 32 29 46 53 93 81 79 98 97 97 95
50 55 61 68 73 73 78 68 50 66 71 68 64 60 60 54 48 51 51 46 37 34 34 29 55 71 77 73 95 97 98 97
60 55 50 50 49 47 63 62 64 56 46 47 36 55 48 47 43 34 33 41 41 35 34 32 37 71 68 74 80 87 97 97

GFSFLT1_700_rhum_219.txt.gz
RH
28 34 36 37 37 36 35 38 40 41 41 42 43 43 39 40 44 47 51 52 51 53 69 68 72 79 90 78 76 78 76 79
29 32 37 37 36 40 43 43 42 41 37 32 28 28 31 42 49 51 54 53 52 58 62 67 68 76 82 82 79 86 80 86
37 33 25 34 42 39 31 27 26 25 26 24 20 19 21 22 25 28 31 40 54 58 60 72 74 80 78 79 70 81 91 92
29 28 35 39 28 16 11 9 8 9 10 11 14 21 24 24 25 26 24 23 23 24 29 56 68 83 91 87 98 84 92 99
32 38 38 27 18 16 17 17 18 16 17 18 16 14 14 13 12 12 13 15 17 21 22 19 20 34 70 83 94 91 99 99
41 45 32 25 21 21 22 26 24 28 28 24 19 16 15 13 11 10 8 8 8 10 18 18 16 17 23 92 73 96 99 99
50 70 71 55 29 27 29 34 38 36 32 24 20 22 27 25 19 18 23 27 19 16 19 24 30 31 43 70 62 60 62 98
58 86 68 55 42 35 35 38 37 34 28 29 30 28 28 27 31 29 28 27 27 29 26 25 27 30 27 29 71 98 99 90
65 66 63 44 33 26 27 34 35 36 34 36 38 42 40 36 34 33 31 29 23 21 20 20 18 21 24 26 26 45 69 99
62 61 62 58 62 47 26 24 27 21 22 33 38 34 34 34 32 32 29 26 23 22 22 22 20 15 22 29 31 34 44 95
66 64 60 60 65 74 69 68 29 21 23 26 33 33 31 33 35 34 33 28 26 28 39 34 26 30 35 53 66 67 90 99
55 63 63 64 65 73 84 85 87 86 80 65 51 46 36 35 37 42 41 42 32 34 35 39 30 21 35 44 62 82 90 93
54 54 53 56 59 60 70 83 82 91 89 90 82 49 62 98 99 100 100 100 50 43 42 44 34 15 22 30 52 58 73 90
49 48 50 58 61 62 65 69 70 74 75 82 89 89 80 84 85 91 80 100 99 70 52 53 31 20 31 55 65 61 60 90
43 46 50 52 54 58 64 70 70 73 75 77 81 78 86 93 93 93 96 94 96 86 46 40 32 29 35 48 89 93 58 85
41 45 46 46 48 52 56 59 61 65 72 75 74 82 81 73 56 81 91 97 92 61 44 42 41 36 29 31 62 82 73 80
41 42 44 48 52 56 59 62 66 68 70 76 79 76 76 80 81 79 65 73 89 54 51 47 40 37 35 29 44 70 75 82
44 47 52 59 61 68 73 74 75 74 76 77 74 71 69 69 70 69 76 84 50 45 49 51 49 43 36 34 30 59 62 69
34 33 61 84 90 92 93 90 92 92 89 82 81 81 79 80 76 76 86 82 65 22 36 34 32 32 31 31 28 27 57 67

GFSFLT1_700_rhum_222.txt.gz
RH
24 26 28 36 40 40 39 38 38 39 40 42 49 55 55 61 49 51 55 75 75 61 60 64 71 72 68 71 78 74 72 71
28 26 29 35 39 40 40 38 39 40 41 39 36 32 28 29 32 37 42 50 61 62 64 73 91 85 94 86 85 86 78 69
25 28 38 42 38 39 40 37 28 19 15 14 17 22 26 27 24 27 29 30 37 34 29 31 32 52 94 99 100 99 91 95
44 50 41 39 50 43 27 14 10 10 10 10 11 10 8 9 12 14 17 18 17 20 21 22 22 22 21 25 93 92 97 100
50 38 38 42 34 24 17 14 11 9 9 9 11 10 10 9 8 7 6 6 5 5 5 5 5 5 6 12 44 53 72 88
48 42 39 38 34 24 20 15 15 14 14 15 12 9 8 8 8 7 7 6 6 6 7 8 8 7 7 6 60 60 100 96
65 63 72 75 37 23 23 20 18 12 10 9 8 7 6 6 8 11 12 15 17 18 19 18 19 17 15 19 27 31 52 84
49 89 79 65 50 51 38 24 16 10 7 5 5 5 5 6 10 12 18 23 26 26 26 26 26 25 26 27 25 27 34 41
68 68 65 60 52 42 31 21 11 7 5 4 3 3 3 5 13 25 28 31 30 33 30 26 24 22 21 21 20 18 21 33
64 52 48 41 32 29 21 11 7 4 4 7 20 17 9 12 16 28 32 33 42 54 52 49 35 28 32 36 32 30 25 31
62 47 36 29 30 17 9 10 10 22 36 77 83 76 47 26 28 36 41 44 53 59 61 64 68 64 62 51 39 28 43 54
53 38 40 32 24 38 32 25 38 60 66 97 96 86 83 87 86 94 76 72 73 77 98 90 89 56 70 66 34 17 18 32
50 44 36 26 36 38 37 46 59 71 75 76 75 76 78 61 74 62 54 56 87 97 93 96 68 66 75 71 56 38 34 32
43 37 37 44 45 41 39 46 61 72 73 68 68 78 75 59 49 44 35 41 59 49 64 90 64 86 90 64 34 32 28 30
37 34 32 38 39 38 46 49 50 50 59 60 64 64 64 72 79 58 35 27 24 26 42 42 88 94 94 68 47 37 31 26
33 22 30 39 44 47 48 52 54 56 57 61 60 65 68 74 69 71 67 77 77 65 44 47 49 66 80 97 80 55 38 30
27 38 44 46 44 39 45 58 70 80 82 79 76 69 62 70 76 82 72 68 72 78 81 86 63 54 62 74 86 56 35 32
42 45 37 20 31 54 72 84 83 90 95 95 92 92 96 97 86 86 88 75 79 87 93 95 77 40 35 56 66 34 23 27
39 32 20 24 27 31 42 48 59 76 90 92 96 99 98 95 93 96 97 86 71 75 86 90 90 35 33 37 23 20 21 20